GFSFLT1_sfc_rhum_171.txt.gz
RH
70 73 79 90 90 86 94 90 84 81 74 75 82 85 86 85 85 84 80 80 78 84 86 83 78 78 80 78 76 79 80 81
66 74 84 95 94 93 91 89 85 79 79 77 82 88 87 88 84 81 81 81 79 82 85 80 78 77 79 78 82 74 78 82
80 83 87 93 94 94 89 90 85 82 73 79 89 82 86 87 87 84 84 83 83 83 84 83 82 81 78 78 77 80 76 82
85 90 93 96 94 92 87 88 83 83 83 83 84 90 88 86 89 90 88 85 83 85 84 83 81 82 81 82 76 70 74 76
68 87 94 96 92 90 88 84 83 83 79 83 80 80 78 86 90 91 90 84 83 83 82 82 80 81 77 75 72 75 75 73
56 83 88 90 91 93 90 84 80 76 77 77 84 80 84 84 86 87 87 85 80 79 80 81 82 83 81 79 78 78 79 79
89 88 86 90 93 93 89 82 81 78 79 80 79 74 77 81 83 86 84 85 82 76 76 80 81 81 79 81 78 73 75 77
88 85 86 88 92 92 90 86 86 84 82 82 77 74 70 72 75 78 82 82 80 79 78 79 79 77 77 78 78 76 74 73
85 82 84 87 91 95 95 92 93 90 86 81 77 71 74 74 72 74 77 79 82 76 74 71 72 73 76 78 81 81 75 76
83 84 88 93 94 95 95 95 94 90 85 80 73 71 74 77 75 74 76 77 71 71 70 72 72 75 74 76 77 77 73 76
80 81 84 84 87 89 94 93 91 87 85 79 74 76 75 76 75 76 75 73 70 70 69 67 66 72 70 73 75 74 73 78
78 78 82 82 87 93 96 95 92 91 89 85 81 78 79 76 75 74 71 72 68 66 66 67 66 71 69 71 72 75 76 76
76 79 78 81 79 79 81 81 82 81 81 79 78 76 72 73 73 75 76 71 66 64 67 72 74 72 72 72 70 78 81 75
62 75 82 81 80 81 79 78 79 80 77 78 81 81 78 80 80 81 82 82 82 80 78 78 77 74 74 79 77 75 75 72
50 69 78 78 75 75 77 84 84 82 82 84 86 86 83 84 87 87 87 86 89 87 84 81 85 84 77 80 77 76 73 73
51 59 82 82 83 82 82 85 83 80 82 86 91 92 91 91 92 93 92 93 95 98 99 99 100 100 99 97 82 75 76 76
50 51 74 78 79 79 79 85 86 84 89 93 95 94 95 95 96 98 98 99 99 99 99 98 99 98 98 96 86 74 68 76
55 54 72 76 78 77 82 87 90 92 95 98 100 98 100 100 99 99 99 99 98 98 98 98 98 98 98 95 86 88 86 91
57 61 77 80 84 86 92 93 92 94 96 100 99 99 100 100 100 100 99 99 98 98 98 98 98 98 93 94 91 96 97 97

GFSFLT1_sfc_rhum_174.txt.gz
RH
79 83 92 89 88 88 91 96 98 95 91 84 76 75 79 83 84 84 82 82 80 84 87 84 81 78 79 74 71 79 82 91
83 87 93 96 90 88 94 98 96 92 89 86 78 80 78 85 88 82 82 83 84 87 87 82 80 80 81 76 79 77 78 79
84 88 93 96 94 90 96 95 94 91 88 94 93 82 82 88 87 85 85 84 86 84 85 82 80 82 84 82 77 77 75 80
48 90 92 94 95 94 95 95 92 92 91 92 92 91 91 95 94 88 88 85 86 85 83 83 82 80 81 81 79 72 73 78
73 73 90 92 93 94 94 94 90 90 89 90 86 87 91 94 92 91 90 85 88 85 79 76 76 77 74 74 76 77 74 73
95 86 97 93 98 97 95 93 90 90 91 88 93 93 91 87 89 85 88 85 82 76 77 76 76 78 80 76 72 72 74 74
92 92 92 96 96 97 96 92 90 89 89 90 90 90 91 84 83 84 82 80 80 77 75 77 77 78 76 78 75 74 74 75
97 94 95 95 96 96 94 92 94 93 93 93 94 93 90 85 84 81 82 81 79 78 76 78 78 79 80 77 76 77 74 75
97 93 92 96 97 96 94 94 98 97 98 98 94 90 89 83 77 78 81 79 78 76 76 75 76 77 79 78 77 78 77 79
96 96 97 94 93 94 94 94 96 96 97 96 96 95 94 92 87 82 81 80 74 75 73 75 76 74 75 75 76 77 78 78
94 95 94 91 89 91 93 93 94 94 96 96 94 93 91 88 87 86 81 76 70 71 72 72 75 73 74 73 78 78 77 78
92 93 92 92 94 95 96 96 97 98 98 97 95 95 94 90 88 86 81 76 71 68 68 68 72 70 72 74 78 77 75 77
87 90 92 95 97 98 98 99 98 97 96 95 94 92 90 88 84 80 78 74 69 66 67 75 76 72 75 76 72 78 77 75
71 82 89 92 93 95 96 97 96 94 88 88 87 87 86 87 84 82 79 77 77 78 78 78 76 77 79 83 86 85 83 73
61 73 86 86 87 90 92 93 91 88 87 86 87 87 87 88 88 87 85 81 83 83 84 86 87 85 87 88 91 92 86 76
55 56 80 91 90 89 89 92 89 86 86 89 91 92 92 92 93 92 91 89 87 92 96 98 99 99 100 98 96 91 83 78
55 55 65 87 87 87 89 91 90 87 90 92 93 92 93 92 93 92 92 98 99 99 98 98 98 99 100 97 95 89 84 82
59 58 64 74 82 84 86 91 92 91 92 94 93 93 92 95 98 99 99 99 99 98 98 98 98 99 100 100 96 95 94 95
62 63 68 77 86 86 91 93 92 93 94 96 95 94 99 98 100 100 100 99 98 98 98 98 97 98 98 98 96 98 98 97

GFSFLT1_sfc_rhum_180.txt.gz
RH
17 25 30 38 42 52 59 76 80 78 89 81 73 75 79 80 82 78 79 77 71 60 53 57 50 43 41 36 40 37 40 49
24 30 35 44 51 66 74 84 84 84 82 89 95 89 88 88 84 76 78 77 75 68 54 58 51 46 42 45 42 48 49 52
24 36 43 52 58 69 78 88 93 90 88 89 88 85 86 84 85 85 74 75 77 63 57 56 52 44 49 49 50 46 49 51
32 34 39 52 66 74 85 90 94 91 89 91 91 92 90 89 86 87 81 74 73 64 59 55 53 47 46 52 54 55 56 52
43 43 36 37 62 79 88 93 94 93 92 91 91 91 90 84 88 86 82 73 65 76 83 79 65 60 62 59 58 65 54 58
67 76 67 74 90 98 98 97 98 96 94 92 95 97 96 96 95 95 94 92 89 88 81 85 89 84 72 65 62 60 52 54
63 70 74 81 89 96 96 96 96 95 95 95 94 95 95 94 94 95 96 96 96 93 91 92 87 75 74 64 65 58 50 50
61 60 64 77 87 92 94 94 97 95 94 94 95 95 94 95 95 95 96 96 97 97 92 91 90 76 64 64 62 64 59 55
67 68 69 77 77 78 81 86 94 95 95 97 96 94 94 94 94 95 94 91 92 92 90 88 88 88 87 86 86 87 83 85
64 70 69 66 66 70 70 69 72 81 90 91 95 94 94 94 94 87 95 91 84 84 83 86 81 76 77 77 80 81 74 67
68 71 69 56 57 58 63 64 66 70 78 83 90 91 90 90 91 87 84 85 81 83 75 72 68 68 66 60 60 61 62 59
64 62 52 50 50 52 58 61 66 74 77 78 84 83 85 84 85 82 78 83 81 81 72 70 66 64 65 65 64 61 59 59
50 51 49 48 49 49 52 54 59 63 64 67 74 80 78 81 82 83 88 83 78 71 69 66 67 74 77 70 62 61 60 66
44 47 49 48 48 48 48 51 52 56 60 70 79 79 79 81 83 85 82 78 73 64 60 61 63 70 69 59 59 60 58 58
42 45 48 48 48 48 49 54 55 62 66 71 77 80 78 76 76 78 76 70 66 61 59 57 62 61 55 53 58 66 69 72
43 42 46 45 49 52 53 57 63 65 67 72 76 78 74 73 75 73 71 68 61 56 58 61 62 65 61 70 72 74 72 66
36 33 37 40 45 55 60 62 68 67 68 73 77 74 70 74 74 72 70 68 65 66 73 86 98 76 91 88 78 72 66 61
34 31 33 38 39 45 49 57 63 68 70 72 86 79 84 90 73 72 79 80 77 87 99 90 99 92 91 88 85 74 70 74
44 40 37 36 40 39 49 53 63 71 76 83 80 82 100 87 99 100 100 99 100 100 100 100 100 100 93 90 87 100 100 100

GFSFLT1_sfc_rhum_183.txt.gz
RH
13 12 13 14 20 29 37 53 64 66 58 57 57 58 65 74 79 73 83 77 68 70 77 83 70 47 46 43 48 38 38 44
13 16 22 22 27 32 40 53 69 68 71 80 76 76 82 86 85 80 79 77 69 74 87 86 83 56 53 52 45 44 40 48
15 21 29 29 32 38 44 54 71 75 89 88 85 84 89 87 87 84 82 84 85 87 89 86 72 53 57 55 55 45 44 48
20 27 28 36 39 44 66 73 80 85 89 91 92 93 94 96 94 93 88 87 90 93 89 92 84 61 57 69 68 56 56 59
28 35 29 30 45 54 75 85 89 90 93 94 94 94 96 90 93 93 92 86 85 88 91 93 94 91 79 66 59 59 65 64
38 43 43 48 69 86 87 92 94 98 95 94 95 98 96 95 96 96 94 92 90 86 86 92 93 91 92 85 77 66 63 57
40 50 56 68 82 94 97 96 98 97 95 95 95 97 97 97 96 96 95 94 92 91 90 93 92 90 86 84 81 76 71 65
42 45 48 64 80 91 94 95 98 96 95 94 95 95 94 94 94 95 96 97 97 96 95 97 97 96 94 92 95 95 94 94
44 45 50 59 72 78 85 90 95 93 93 95 94 93 93 93 94 95 95 96 97 98 98 96 97 94 88 86 92 93 93 94
46 48 51 54 59 69 74 75 76 80 84 88 92 88 93 94 90 92 95 95 97 95 92 90 87 85 81 80 88 88 88 91
44 47 52 48 52 56 60 61 66 76 81 84 85 81 82 85 90 93 91 92 87 82 84 76 84 81 75 77 78 77 77 79
43 46 46 45 48 52 55 57 62 74 78 77 79 77 80 80 78 83 80 79 76 78 72 70 67 64 60 57 56 58 60 60
40 42 41 43 44 45 50 52 57 65 66 73 75 77 78 82 80 78 76 74 71 69 70 69 61 62 64 64 56 52 54 60
36 40 40 39 41 42 44 48 50 54 59 66 76 83 82 83 80 81 81 80 80 73 63 59 56 62 65 61 56 58 60 61
33 39 39 39 39 40 40 45 45 48 52 68 79 81 81 80 78 77 75 69 66 62 59 54 56 59 60 57 56 59 57 56
48 44 41 39 40 39 39 43 48 46 51 59 72 74 75 76 79 76 75 72 66 62 60 58 62 63 55 58 58 62 64 64
66 50 60 69 69 46 40 42 55 54 53 61 72 78 74 81 80 80 77 73 68 65 66 65 74 61 86 80 71 64 63 64
66 63 52 42 47 61 57 47 49 63 61 67 81 77 78 82 74 72 76 78 72 74 85 75 88 78 89 85 82 71 71 70
79 79 73 72 70 65 70 83 68 64 71 73 81 79 90 77 86 100 94 89 100 100 100 100 91 100 91 90 86 100 100 100